Weather History for Debrecen, Hungary

Change the Weather History Date:

Monday, October 8, 2012

  Actual Average Record
Temperature  
Mean Temperature 49 °F -  
Max Temperature 61 °F 58 °F - ()
Min Temperature 39 °F 40 °F - ()
Degree Days  
Heating Degree Days 16    
Moisture  
Dew Point 40 °F    
Average Humidity 65    
Maximum Humidity 93    
Minimum Humidity 38    
Precipitation  
Precipitation 0.00 in 0.05 in - ()
Sea Level Pressure  
Sea Level Pressure 30.07 in    
Wind  
Wind Speed 5 mph ()    
Max Wind Speed 11 mph    
Max Gust Speed -    
Visibility 6.8 miles    
Events      
T = Trace of Precipitation, MM = Missing Value Source: Averaged Metar Reports

Daily Weather History Graph

Daily Weather History Graph

Search for Another Location

Airport:

Trip Planner

Search our weather history database for the weather conditions in past years. The results will help you decide how hot, cold, wet, or windy it might be!

Date:

Astronomy

Oct. 08, 2012 Rise Set
Actual Time 6:42 AM CEST 5:58 PM CEST
Civil Twilight 6:11 AM CEST 6:29 PM CEST
Nautical Twilight 5:36 AM CEST 7:04 PM CEST
Astronomical Twilight 5:00 AM CEST 7:40 PM CEST
Moon 11:37 PM CEST (10/8) 2:01 PM CEST (10/8)
Length of Visible Light 12h 17m
Length of Day
11h 16m
Waning Gibbous, 49% of the Moon is Illuminated
Oct 8
Waning Gibbous
Oct 15
New
Oct 22
First Quarter
Oct 29
Full
Nov 7
Last Quarter

Hourly Weather History & Observations

Time (CEST) Temp. Windchill Dew Point Humidity Pressure Visibility Wind Dir Wind Speed Gust Speed Precip Events Conditions
2:00 AM 48 °F - 42 °F 72% 29.96 in - NNW 11.2 mph - -  
4:45 AM 44.6 °F 41.4 °F 41.0 °F 87% 30.04 in - NW 5.8 mph - N/A   Clear
5:45 AM 42.8 °F 39.3 °F 39.2 °F 87% 30.04 in - WNW 5.8 mph - N/A   Clear
6:15 AM 42.8 °F - 39.2 °F 87% 30.04 in - West 2.3 mph - N/A   Clear
6:45 AM 41.0 °F - 37.4 °F 87% 30.06 in - North 2.3 mph - N/A   Clear
7:00 AM - - - N/A% - - West 5.8 mph - N/A   Clear
7:15 AM 41.0 °F - 39.2 °F 93% 30.06 in - WSW 2.3 mph - N/A   Clear
7:45 AM 41.0 °F - 37.4 °F 87% 30.06 in - Calm Calm - N/A   Clear
8:00 AM 40 °F - 38 °F 89% 30.09 in 19 mi Calm Calm - -   Partly Cloudy
8:15 AM 44.6 °F - 42.8 °F 93% 30.09 in - West 1.2 mph - N/A   Clear
8:45 AM 46.4 °F 44.3 °F 42.8 °F 87% 30.09 in - West 4.6 mph - N/A   Clear
9:15 AM 48.2 °F - 41.0 °F 76% 30.09 in - WNW 8.1 mph - N/A   Clear
9:45 AM 50.0 °F - 41.0 °F 71% 30.09 in - WNW 6.9 mph - N/A   Clear
10:00 AM - - - N/A% - 6.2 mi West 8.1 mph - N/A   Scattered Clouds
10:15 AM 51.8 °F - 42.8 °F 71% 30.09 in 6.2 mi West 8.1 mph - N/A   Partly Cloudy
10:45 AM 53.6 °F - 42.8 °F 67% 30.09 in 6.2 mi WNW 8.1 mph - N/A   Partly Cloudy
11:15 AM 55.4 °F - 42.8 °F 63% 30.09 in 6.2 mi West 5.8 mph - N/A   Partly Cloudy
11:45 AM 55.4 °F - 39.2 °F 54% 30.09 in 6.2 mi WNW 4.6 mph - N/A   Scattered Clouds
12:15 PM 55.4 °F - 41.0 °F 58% 30.09 in 6.2 mi WSW 4.6 mph - N/A   Scattered Clouds
12:45 PM 57.2 °F - 39.2 °F 51% 30.09 in 6.2 mi WSW 6.9 mph - N/A   Partly Cloudy
1:00 PM - - - N/A% - 6.2 mi West 8.1 mph - N/A   Scattered Clouds
1:15 PM 57.2 °F - 39.2 °F 51% 30.09 in 6.2 mi West 6.9 mph - N/A   Scattered Clouds
2:00 PM 58 °F - 39 °F 38% 30.09 in 25 mi WNW 4.5 mph - -   Partly Cloudy
2:15 PM 57.2 °F - 35.6 °F 44% 30.09 in 6.2 mi WNW 5.8 mph - N/A   Scattered Clouds
2:45 PM 57.2 °F - 35.6 °F 44% 30.06 in 6.2 mi WNW 2.3 mph - N/A   Scattered Clouds
3:15 PM 59.0 °F - 37.4 °F 45% 30.06 in 6.2 mi North 3.5 mph - N/A   Scattered Clouds
3:45 PM 59.0 °F - 35.6 °F 42% 30.06 in 6.2 mi WSW 5.8 mph - N/A   Scattered Clouds
4:00 PM - - - N/A% - - Variable 3.5 mph - N/A   Clear
4:15 PM 59.0 °F - 37.4 °F 45% 30.06 in 6.2 mi WSW 6.9 mph - N/A   Partly Cloudy
4:45 PM 57.2 °F - 37.4 °F 48% 30.04 in 6.2 mi WSW 5.8 mph - N/A   Scattered Clouds
5:15 PM 55.4 °F - 39.2 °F 54% 30.06 in 6.2 mi WSW 4.6 mph - N/A   Mostly Cloudy
5:45 PM 55.4 °F - 39.2 °F 54% 30.06 in 6.2 mi WSW 3.5 mph - N/A   Mostly Cloudy
6:15 PM 55.4 °F - 39.2 °F 54% 30.06 in 6.2 mi WSW 3.5 mph - N/A   Mostly Cloudy
6:42 PM 53.6 °F - 39.2 °F 58% 30.06 in - SW 1.2 mph - N/A   Unknown
7:15 PM 51.8 °F - 42.8 °F 71% 30.06 in 6.2 mi SSE 2.3 mph - N/A   Mostly Cloudy
8:00 PM 51 °F - 42 °F 63% 30.06 in 22 mi South 2.2 mph - -   Partly Cloudy
10:00 PM - - - N/A% - - North - - N/A   Unknown